| time (UTC) | temp F | wind direction | speed knots | gust knots | rain 1hr in | rain 24hr in | rain mn in | humidity % | barometer mb |
| 20260509182049 | 81 | 0 | 1.7 | 0.0 | 0.00 | 0.00 | 0.00 | 57 | |
| 20260509181019 | 80 | 0 | 1.7 | 0.0 | 0.00 | 0.00 | 0.00 | 59 | |
| 20260509180019 | 79 | 0 | 4.3 | 0.0 | 0.00 | 0.00 | 0.00 | 60 | |
| 20260509174949 | 78 | 0 | 0.9 | 0.0 | 0.00 | 0.00 | 0.00 | 62 | |
| 20260509173919 | 77 | 0 | 2.6 | 0.0 | 0.00 | 0.00 | 0.00 | 64 | |
| 20260509172849 | 75 | 0 | 2.6 | 0.0 | 0.00 | 0.00 | 0.00 | 66 | |
| 20260509171819 | 74 | 0 | 0.9 | 0.0 | 0.00 | 0.00 | 0.00 | 68 | |
| 20260509170749 | 74 | 0 | 0.0 | 0.0 | 0.00 | 0.00 | 0.00 | 69 | |
| 20260509165719 | 73 | 0 | 1.7 | 0.0 | 0.00 | 0.00 | 0.00 | 70 | |
| 20260509164649 | 73 | 0 | 2.6 | 0.0 | 0.00 | 0.00 | 0.00 | 70 | |
| 20260509163619 | 72 | 0 | 2.6 | 0.0 | 0.00 | 0.00 | 0.00 | 70 | |
| 20260509162549 | 72 | 0 | 1.7 | 0.0 | 0.00 | 0.00 | 0.00 | 69 | |
| 20260509161549 | 71 | 0 | 1.7 | 0.0 | 0.00 | 0.00 | 0.00 | 72 | |
| 20260509160519 | 70 | 0 | 0.0 | 0.0 | 0.00 | 0.00 | 0.00 | 74 | |
| 20260509155519 | 68 | 0 | 0.0 | 0.0 | 0.00 | 0.00 | 0.00 | 76 | |
| 20260509154449 | 66 | 0 | 0.0 | 0.0 | 0.00 | 0.00 | 0.00 | 82 | |
| 20260509153419 | 65 | 0 | 0.0 | 0.0 | 0.00 | 0.00 | 0.00 | 83 | |
| 20260509152349 | 64 | 0 | 0.0 | 0.0 | 0.00 | 0.00 | 0.00 | 85 | |
| 20260509151349 | 64 | 0 | 0.0 | 0.0 | 0.00 | 0.00 | 0.00 | 86 | |
| 20260509150349 | 63 | 0 | 0.0 | 0.0 | 0.00 | 0.00 | 0.00 | 90 | |
| 20260509145349 | 60 | 0 | 0.9 | 0.0 | 0.00 | 0.00 | 0.00 | 92 | |
| 20260509144319 | 57 | 0 | 0.0 | 0.0 | 0.00 | 0.00 | 0.00 | 99 | |
| 20260509143319 | 56 | 0 | 0.0 | 0.0 | 0.00 | 0.00 | 0.00 | 99 | |
| 20260509142249 | 55 | 0 | 0.0 | 0.0 | 0.00 | 0.00 | 0.00 | 99 | |
| 20260509141249 | 54 | 0 | 0.0 | 0.0 | 0.00 | 0.00 | 0.00 | 99 | |
| 20260509140249 | 52 | 0 | 0.0 | 0.0 | 0.00 | 0.00 | 0.00 | 99 | |
| 20260509135219 | 51 | 0 | 0.0 | 0.0 | 0.00 | 0.00 | 0.00 | 99 | |
| 20260509134219 | 51 | 0 | 0.0 | 0.0 | 0.00 | 0.00 | 0.00 | 99 | |
| 20260509133149 | 51 | 0 | 0.0 | 0.0 | 0.00 | 0.00 | 0.00 | 99 | |
| 20260509132119 | 50 | 0 | 0.0 | 0.0 | 0.00 | 0.00 | 0.00 | 99 | |
| 20260509131049 | 50 | 0 | 0.0 | 0.0 | 0.00 | 0.00 | 0.00 | 99 | |
| 20260509130049 | 50 | 0 | 0.0 | 0.0 | 0.00 | 0.00 | 0.00 | 99 | |
| 20260509125019 | 51 | 0 | 0.0 | 0.0 | 0.00 | 0.00 | 0.00 | 99 | |
| 20260509124019 | 51 | 0 | 0.0 | 0.0 | 0.00 | 0.00 | 0.00 | 99 | |
| 20260509122949 | 51 | 0 | 0.0 | 0.0 | 0.00 | 0.00 | 0.00 | 99 | |
| 20260509121919 | 51 | 0 | 0.0 | 0.0 | 0.00 | 0.00 | 0.00 | 99 | |
| 20260509120849 | 51 | 0 | 0.0 | 0.0 | 0.00 | 0.00 | 0.00 | 99 | |
| 20260509115819 | 51 | 0 | 0.0 | 0.0 | 0.00 | 0.00 | 0.00 | 99 | |
| 20260509114819 | 51 | 0 | 0.0 | 0.0 | 0.00 | 0.00 | 0.00 | 99 | |
| 20260509113749 | 52 | 0 | 0.0 | 0.0 | 0.00 | 0.00 | 0.00 | 99 | |
| 20260509112749 | 51 | 0 | 0.0 | 0.0 | 0.00 | 0.00 | 0.00 | 99 | |
| 20260509111719 | 51 | 0 | 0.0 | 0.0 | 0.00 | 0.00 | 0.00 | 99 | |
| 20260509110719 | 51 | 0 | 0.0 | 0.0 | 0.00 | 0.00 | 0.00 | 99 | |
| 20260509105649 | 52 | 0 | 0.0 | 0.0 | 0.00 | 0.00 | 0.00 | 99 | |
| 20260509104649 | 52 | 0 | 0.0 | 0.0 | 0.00 | 0.00 | 0.00 | 99 | |
| 20260509103649 | 52 | 0 | 0.0 | 0.0 | 0.00 | 0.00 | 0.00 | 99 | |
| 20260509102649 | 52 | 0 | 0.0 | 0.0 | 0.00 | 0.00 | 0.00 | 99 | |
| 20260509101619 | 52 | 0 | 0.0 | 0.0 | 0.00 | 0.00 | 0.00 | 99 | |
| 20260509100549 | 52 | 0 | 0.0 | 0.0 | 0.00 | 0.00 | 0.00 | 99 | |
| 20260509095519 | 52 | 0 | 0.0 | 0.0 | 0.00 | 0.00 | 0.00 | 99 | |
| 20260509094519 | 52 | 0 | 0.0 | 0.0 | 0.00 | 0.00 | 0.00 | 99 | |
| 20260509093449 | 52 | 0 | 0.0 | 0.0 | 0.00 | 0.00 | 0.00 | 99 | |
| 20260509092419 | 53 | 0 | 0.0 | 0.0 | 0.00 | 0.00 | 0.00 | 99 | |
| 20260509091419 | 53 | 0 | 0.0 | 0.0 | 0.00 | 0.00 | 0.00 | 99 | |
| 20260509090349 | 53 | 0 | 0.0 | 0.0 | 0.00 | 0.00 | 0.00 | 99 | |
| 20260509085349 | 53 | 0 | 0.0 | 0.0 | 0.00 | 0.00 | 0.00 | 99 | |
| 20260509084349 | 54 | 0 | 0.0 | 0.0 | 0.00 | 0.00 | 0.00 | 99 | |
| 20260509083349 | 54 | 0 | 0.0 | 0.0 | 0.00 | 0.00 | 0.00 | 99 | |
| 20260509082319 | 54 | 0 | 0.0 | 0.0 | 0.00 | 0.00 | 0.00 | 99 | |
| 20260509081249 | 54 | 0 | 0.0 | 0.0 | 0.00 | 0.00 | 0.00 | 99 | |
| 20260509080219 | 55 | 0 | 0.0 | 0.0 | 0.00 | 0.00 | 0.00 | 99 | |
| 20260509075149 | 55 | 0 | 0.0 | 0.0 | 0.00 | 0.00 | 0.00 | 99 | |
| 20260509074149 | 55 | 0 | 0.0 | 0.0 | 0.00 | 0.00 | 0.00 | 99 | |
| 20260509073119 | 56 | 0 | 0.0 | 0.0 | 0.00 | 0.00 | 0.00 | 99 | |
| 20260509072049 | 56 | 0 | 0.0 | 0.0 | 0.00 | 0.00 | 0.00 | 99 | |
| 20260509071049 | 56 | 0 | 0.0 | 0.0 | 0.00 | 0.00 | 0.00 | 99 | |
| 20260509070049 | 57 | 0 | 0.0 | 0.0 | 0.00 | 0.00 | 0.00 | 99 | |
| 20260509065019 | 57 | 0 | 0.0 | 0.0 | 0.00 | 0.00 | 0.00 | 99 | |
| 20260509063949 | 57 | 0 | 0.0 | 0.0 | 0.00 | 0.00 | 0.00 | 98 | |
| 20260509062919 | 57 | 0 | 0.0 | 0.0 | 0.00 | 0.00 | 0.00 | 98 | |
| 20260509061849 | 58 | 0 | 0.0 | 0.0 | 0.00 | 0.00 | 0.00 | 99 | |
| 20260509060819 | 58 | 0 | 0.0 | 0.0 | 0.00 | 0.00 | 0.00 | 98 | |
| 20260509055819 | 59 | 0 | 0.0 | 0.0 | 0.00 | 0.00 | 0.00 | 98 | |
| 20260509054749 | 59 | 0 | 0.0 | 0.0 | 0.00 | 0.00 | 0.00 | 97 | |
| 20260509053719 | 59 | 0 | 0.0 | 0.0 | 0.00 | 0.00 | 0.00 | 97 | |
| 20260509052649 | 59 | 0 | 0.0 | 0.0 | 0.00 | 0.00 | 0.00 | 96 | |
| 20260509051649 | 60 | 0 | 0.0 | 0.0 | 0.00 | 0.00 | 0.00 | 95 | |
| 20260509050619 | 60 | 0 | 0.0 | 0.0 | 0.00 | 0.00 | 0.00 | 94 | |
| 20260509045619 | 61 | 0 | 0.0 | 0.0 | 0.00 | 0.00 | 0.00 | 94 | |
| 20260509044619 | 61 | 0 | 0.0 | 0.0 | 0.00 | 0.00 | 0.00 | 91 | |
| 20260509043549 | 62 | 0 | 0.0 | 0.0 | 0.00 | 0.00 | 0.00 | 91 | |
| 20260509042519 | 63 | 0 | 0.0 | 0.0 | 0.00 | 0.00 | 0.00 | 89 | |
| 20260509041519 | 63 | 0 | 0.0 | 0.0 | 0.00 | 0.00 | 0.00 | 89 | |
| 20260509040449 | 64 | 0 | 0.0 | 0.0 | 0.00 | 0.00 | 0.00 | 86 | |
| 20260509035419 | 65 | 0 | 0.0 | 0.0 | 0.00 | 0.00 | 0.00 | 85 | |
| 20260509034419 | 66 | 0 | 0.0 | 0.0 | 0.00 | 0.00 | 0.00 | 83 | |
| 20260509033349 | 67 | 0 | 0.0 | 0.0 | 0.00 | 0.00 | 0.00 | 81 | |
| 20260509032349 | 68 | 0 | 0.0 | 0.0 | 0.00 | 0.00 | 0.00 | 79 | |
| 20260509031319 | 70 | 0 | 0.0 | 0.0 | 0.00 | 0.00 | 0.00 | 76 | |
| 20260509030249 | 71 | 0 | 0.0 | 0.0 | 0.00 | 0.00 | 0.00 | 74 | |
| 20260509025219 | 72 | 0 | 0.0 | 0.0 | 0.00 | 0.00 | 0.00 | 72 | |
| 20260509024149 | 74 | 0 | 0.0 | 0.0 | 0.00 | 0.00 | 0.00 | 69 | |
| 20260509023119 | 75 | 0 | 0.0 | 0.0 | 0.00 | 0.00 | 0.00 | 67 | |
| 20260509022049 | 77 | 0 | 0.0 | 0.0 | 0.00 | 0.00 | 0.00 | 63 | |
| 20260509021049 | 78 | 0 | 0.0 | 0.0 | 0.00 | 0.00 | 0.00 | 59 | |
| 20260509020019 | 78 | 0 | 0.0 | 0.0 | 0.00 | 0.00 | 0.00 | 55 | |
| 20260509015019 | 79 | 0 | 0.9 | 0.0 | 0.00 | 0.00 | 0.00 | 54 | |
| 20260509013949 | 79 | 0 | 0.0 | 0.0 | 0.00 | 0.00 | 0.00 | 50 | |
| 20260509012919 | 79 | 0 | 0.9 | 0.0 | 0.00 | 0.00 | 0.00 | 50 | |
| 20260509011849 | 80 | 0 | 1.7 | 0.0 | 0.00 | 0.00 | 0.00 | 55 | |
| 20260509010849 | 80 | 0 | 1.7 | 0.0 | 0.00 | 0.00 | 0.00 | 56 | |
| 20260509005819 | 80 | 0 | 2.6 | 0.0 | 0.00 | 0.00 | 0.00 | 56 | |
| 20260509004749 | 82 | 0 | 1.7 | 0.0 | 0.00 | 0.00 | 0.00 | 54 | |
| 20260509003719 | 82 | 0 | 0.9 | 0.0 | 0.00 | 0.00 | 0.00 | 54 | |
| 20260509002649 | 82 | 0 | 4.3 | 0.0 | 0.00 | 0.00 | 0.00 | 52 | |
| 20260509001649 | 83 | 0 | 3.5 | 0.0 | 0.00 | 0.00 | 0.00 | 51 | |
| 20260509000619 | 85 | 0 | 2.6 | 0.0 | 0.00 | 0.00 | 0.00 | 47 | |
| 20260508235549 | 88 | 0 | 2.6 | 0.0 | 0.00 | 0.00 | 0.00 | 43 | |
| 20260508234549 | 86 | 0 | 1.7 | 0.0 | 0.00 | 0.00 | 0.00 | 47 | |
| 20260508233549 | 87 | 0 | 3.5 | 0.0 | 0.00 | 0.00 | 0.00 | 47 | |
| 20260508232549 | 86 | 0 | 3.5 | 0.0 | 0.00 | 0.00 | 0.00 | 48 | |
| 20260508231519 | 86 | 0 | 0.9 | 0.0 | 0.00 | 0.00 | 0.00 | 49 | |
| 20260508230520 | 87 | 0 | 2.6 | 0.0 | 0.00 | 0.00 | 0.00 | 47 | |
| 20260508225449 | 89 | 0 | 1.7 | 0.0 | 0.00 | 0.00 | 0.00 | 47 | |
| 20260508224419 | 88 | 0 | 2.6 | 0.0 | 0.00 | 0.00 | 0.00 | 49 | |
| 20260508223419 | 87 | 0 | 3.5 | 0.0 | 0.00 | 0.00 | 0.00 | 51 | |
| 20260508222419 | 86 | 0 | 1.7 | 0.0 | 0.00 | 0.00 | 0.00 | 52 | |
| 20260508221349 | 88 | 0 | 1.7 | 0.0 | 0.00 | 0.00 | 0.00 | 48 | |
| 20260508220349 | 87 | 0 | 4.3 | 0.0 | 0.00 | 0.00 | 0.00 | 51 | |
| 20260508215349 | 88 | 0 | 0.9 | 0.0 | 0.00 | 0.00 | 0.00 | 50 | |
| 20260508214319 | 85 | 0 | 1.7 | 0.0 | 0.00 | 0.00 | 0.00 | 53 | |
| 20260508213319 | 86 | 0 | 0.9 | 0.0 | 0.00 | 0.00 | 0.00 | 53 | |
| 20260508212249 | 86 | 0 | 1.7 | 0.0 | 0.00 | 0.00 | 0.00 | 53 | |
| 20260508211219 | 85 | 0 | 1.7 | 0.0 | 0.00 | 0.00 | 0.00 | 53 | |
| 20260508210219 | 85 | 0 | 1.7 | 0.0 | 0.00 | 0.00 | 0.00 | 53 | |
| 20260508205149 | 83 | 0 | 3.5 | 0.0 | 0.00 | 0.00 | 0.00 | 55 | |
| 20260508204149 | 83 | 0 | 1.7 | 0.0 | 0.00 | 0.00 | 0.00 | 54 | |
| 20260508203119 | 83 | 0 | 3.5 | 0.0 | 0.00 | 0.00 | 0.00 | 54 | |
| 20260508202049 | 81 | 0 | 1.7 | 0.0 | 0.00 | 0.00 | 0.00 | 55 | |
| 20260508201049 | 82 | 0 | 2.6 | 0.0 | 0.00 | 0.00 | 0.00 | 54 | |
| 20260508200049 | 82 | 0 | 3.5 | 0.0 | 0.00 | 0.00 | 0.00 | 54 | |
| 20260508195049 | 81 | 0 | 1.7 | 0.0 | 0.00 | 0.00 | 0.00 | 55 | |
| 20260508194019 | 80 | 0 | 2.6 | 0.0 | 0.00 | 0.00 | 0.00 | 58 | |
| 20260508193019 | 81 | 0 | 3.5 | 0.0 | 0.00 | 0.00 | 0.00 | 57 | |
| 20260508191949 | 81 | 0 | 1.7 | 0.0 | 0.00 | 0.00 | 0.00 | 57 | |
| 20260508190949 | 78 | 0 | 1.7 | 0.0 | 0.00 | 0.00 | 0.00 | 62 | |
| 20260508185919 | 78 | 0 | 3.5 | 0.0 | 0.00 | 0.00 | 0.00 | 61 | |
| 20260508184849 | 79 | 0 | 4.3 | 0.0 | 0.00 | 0.00 | 0.00 | 61 | |
| 20260508183819 | 78 | 0 | 3.5 | 0.0 | 0.00 | 0.00 | 0.00 | 61 |